This demonstration page uses our WeatherBlox Daily Observations layout. Learn more.

Left ArrowRight Arrow

44.89941, -97.11507

Hourly Observations for April 29, 2019

Temp ( °F °C ) Dew Point ( °F °C ) Humidity (%) Winds ( mph kmh ) Pressure ( in mb ) Visibility ( mi km ) Precip ( " mm )
12:45 am 00:45 Cloudy 40 4.4 36 2.2 86 86 SE 10 17 29.91 1013 10 16 0.00 0.00
12:53 am 00:53 Cloudy with Light Rain 40 4.4 36 2.2 86 86 SE 10 17 29.90 1013 10 16 0.00 0.03
1:53 am 01:53 Cloudy 40 4.4 36 2.2 86 86 SE 8 13 29.89 1012 10 16 0.00 0.03
2:45 am 02:45 Cloudy 40 4.4 37 2.8 89 89 SSE 6 9 29.91 1013 10 16 0.00 0.00
2:53 am 02:53 Cloudy 40 4.4 37 2.8 89 89 SSE 5 7 29.90 1012 10 16 0.00 0.00
3:53 am 03:53 Mostly Cloudy 38 3.3 36 2.2 93 93 SSE 6 9 29.88 1012 10 16 0.00 0.00
4:05 am 04:05 Mostly Cloudy 39 3.9 36 2.2 89 89 SSE 5 7 29.91 1013 10 16 0.00 0.00
4:35 am 04:35 Cloudy 40 4.4 38 3.3 93 93 S 6 9 29.91 1013 10 16 0.00 0.00
4:53 am 04:53 Cloudy 41 5 38 3.3 89 89 S 6 9 29.89 1012 10 16 0.00 0.00
5:04 am 05:04 Cloudy 41 5 38 3.3 89 89 SSW 6 9 29.90 1013 10 16 0.00 0.00
5:31 am 05:31 Mostly Cloudy 41 5 38 3.3 89 89 W 9 15 29.90 1013 10 16 0.00 0.00
5:46 am 05:46 Mostly Cloudy 41 5 37 2.8 86 86 W 7 11 29.90 1013 10 16 0.00 0.00
5:53 am 05:53 Mostly Cloudy 40 4.4 37 2.8 89 89 W 9 15 29.89 1012 10 16 0.00 0.00
6:53 am 06:53 Mostly Sunny 38 3.3 35 1.7 89 89 W 10 17 29.93 1014 10 16 0.00 0.00
7:53 am 07:53 Sunny 39 3.9 33 0.6 79 79 W 12 19 29.95 1014 10 16 0.00 0.00
8:53 am 08:53 Sunny 41 5 34 1.1 76 76 W 13 20 29.96 1015 10 16 0.00 0.00
9:53 am 09:53 Mostly Sunny 43 6.1 35 1.7 74 74 WNW 14 22 29.97 1015 10 16 0.00 0.00
10:51 am 10:51 Mostly Cloudy 45 7 36 2 71 71 WNW 13 20 29.99 1016 10 16 0.00 0.00
10:53 am 10:53 Mostly Cloudy 45 7.2 35 1.7 68 68 W 12 19 29.99 1016 10 16 0.00 0.00
11:53 am 11:53 Cloudy 45 7.2 34 1.1 66 66 W 14 22 30.01 1016 10 16 0.00 0.00
12:53 pm 12:53 Cloudy 46 7.8 34 1.1 63 63 WNW 14 22 30.03 1017 10 16 0.00 0.00
1:35 pm 13:35 Cloudy 49 9.4 38 3.3 66 66 WNW 14 22 30.01 1016 10 16 0.00 0.00
1:53 pm 13:53 Cloudy 48 8.9 35 1.7 61 61 NW 15 24 30.03 1017 10 16 0.00 0.00
2:53 pm 14:53 Cloudy 49 9.4 38 3.3 66 66 NNW 18 30 30.05 1018 10 16 0.00 0.00
3:53 pm 15:53 Mostly Cloudy 51 10.6 36 2.2 56 56 NNW 20 31 30.06 1018 10 16 0.00 0.00
4:53 pm 16:53 Partly Cloudy 48 8.9 35 1.7 61 61 NW 17 28 30.09 1019 10 16 0.00 0.00
5:53 pm 17:53 Cloudy 45 7.2 34 1.1 66 66 N 16 26 30.13 1020 10 16 0.00 0.00
6:18 pm 18:18 Cloudy 43 6.1 34 1.1 71 71 NNW 17 28 30.16 1021 10 16 0.00 0.00
6:53 pm 18:53 Cloudy 42 5.6 32 0 68 68 NNW 13 20 30.16 1021 10 16 0.00 0.00
7:53 pm 19:53 Cloudy 41 5 32 0 70 70 N 12 19 30.18 1022 10 16 0.00 0.00
8:53 pm 20:53 Cloudy 40 4.4 32 0 73 73 N 10 17 30.20 1023 10 16 0.00 0.00
9:53 pm 21:53 Cloudy 40 4.4 32 0 73 73 N 13 20 30.22 1023 10 16 0.00 0.00
10:53 pm 22:53 Cloudy 39 3.9 33 0.6 79 79 N 10 17 30.23 1024 10 16 0.00 0.00
11:53 pm 23:53 Cloudy 39 3.9 33 0.6 79 79 N 12 19 30.23 1024 10 16 0.00 0.00

Powered by AerisWeather